Showing default

O3B MPOWER F09, 64866

Orbit data source: Space-Track

O3B MPOWER F09, 64866 is a payload satellite owned by O3B SES (LU) that was launched on Tue, 22 Jul 2025 UTC via an FALCON 9 launch vehicle from the Air Force Eastern Test Range (AFETR). Payload-class satellites include a variety of spacecraft equipped with specific instruments for various scientific and technological missions. These include communications satellites like Starlink; space stations such as the ISS; scientific satellites like the Hubble; Earth observation satellites from companies like Planet Labs, Umbra, and HawkEye 360; GPS; miniature CubeSats for education and research; and military/defense satellites.

Loading next visibility...
Identifier
64866, 2025-153A
Orbit
Active
Country
Flag of LULU / SES
Related business
Manufacturer
Boeing/ES
Mission
Operational Commercial Communications
Bus & Motor
702X, PPS5000
Mass
1,700 kg wet, 1,700 kg dry
Launch date (UTC)
2025-07-22 (11 months ago)
Launch vehicle
FALCON 9
Launch site
Air Force Eastern Test Range (AFETR)
Object type
Payload
Rocket body
Debris
Shape & HBR
Box + 2 Pan, 14.5 m
Radar Cross Section
27.396 m², Large (>1 m²)

Expand to show TLE details & history
Last TLE update: 11 hours ago

TLE from 11 hours ago
0 O3B MPOWER F09
1 64866U 25153A   26171.37412059 -.00000024  00000-0  00000+0 0  9990
2 64866   0.0589   9.4546 0006421 100.7311 249.8810  5.00115764 19717
Epoch: 2026-06-20T08:58Z
TLE epoch observation values (Epoch: 2026-06-20T08:58:44.018Z)
Latitude
-0.00977°
Longitude
-43.27311°
Altitude
8,067.559 km
Speed
5.253 km/s
True Right ascension
23h 59m 59s
True Declination
0° 00' 35"
Sunlit
Object was in daylight at epoch
Visualization orbit readout
Latitude
Unknown
Longitude
Unknown
Altitude
Unknown
Speed
Unknown
Apparent Right ascension
Unknown
Apparent Declination
Unknown
Sunlit
N/A
Visualization observer readout
Local Sidereal Time
07:21:50
Azimuth
Unknown
Elevation
Unknown
Doppler factor
Unknown
Orbital elements
Apogee altitude
8,078.22 km
Perigee altitude
8,059.667 km
Semi-major axis
14,447.081 km
Eccentricity
0.00064
Inclination
0.0589°
RAAN
9.4546°
Arg. of periapsis
100.7311°
True anomaly
249.81193°
Mean anomaly
249.881°
Eccentric anomaly
249.84646°
Mean motion
1.24989 °/min
Orbital period
288.02 mins
BSTAR
0
Loading maneuver chart data...
Computing Atmospheric mass density...
Loading historical data...
Loading historical data...
Loading historical data...
Loading historical data...
Loading historical data...
Loading historical data...
Loading historical data...
Other satellites on launch #153 in the year 2025 (2025-07-22 UTC)

Documentation

Showing up to 5 results
|